When you browse on this site, cookies collect data to enhance your experience and personalize the content and advertising you see.
Visit our Privacy Policy to learn more. By continuing to use the site, you agree to this use of cookies and data.
  • Em Portugal
  • Lista de países
  • Para 7 dias
  • Temperatura da água
  • Mapas de satélite
  • Mapa do tempo
  • Widgets de tempo
  • user-avatar
    Iniciar Sessão

    Previsão horária em Branno

    Hoje, 20 Junho, Quinta-feira

    Tempo Temperatura Precipitação Vento Pressão Humidade
    00:00 +22°C° 0 mm 1 m/s 748 mmHg 79%
    01:00 +21°C° 0 mm 1 m/s 748 mmHg 80%
    02:00 +21°C° 0 mm 1 m/s 748 mmHg 80%
    03:00 +21°C° 0 mm 1 m/s 748 mmHg 79%
    04:00 +21°C° 0 mm 1 m/s 748 mmHg 79%
    05:00 +21°C° 0 mm 2 m/s 748 mmHg 77%
    06:00 +23°C° 0 mm 2 m/s 748 mmHg 75%
    07:00 +25°C° 0 mm 2 m/s 748 mmHg 74%
    08:00 +26°C° 0 mm 2 m/s 748 mmHg 68%
    09:00 +28°C° 0 mm 2 m/s 748 mmHg 62%
    10:00 +29°C° 0 mm 2 m/s 748 mmHg 56%
    11:00 +30°C° 0 mm 3 m/s 748 mmHg 53%
    12:00 +31°C° 0 mm 3 m/s 748 mmHg 50%
    13:00 +31°C° 0 mm 3 m/s 748 mmHg 46%
    14:00 +31°C° 0 mm 3 m/s 748 mmHg 48%
    15:00 +31°C° 0 mm 3 m/s 748 mmHg 49%
    16:00 +31°C° 0 mm 3 m/s 748 mmHg 50%
    17:00 +30°C° 0 mm 2 m/s 748 mmHg 54%
    18:00 +29°C° 0 mm 2 m/s 748 mmHg 58%
    19:00 +28°C° 0 mm 1 m/s 748 mmHg 62%
    20:00 +26°C° 0.6 mm 2 m/s 749 mmHg 71%
    21:00 +23°C° 0.6 mm 2 m/s 749 mmHg 80%
    22:00 +20°C° 0.6 mm 2 m/s 749 mmHg 89%
    23:00 +20°C° 0.4 mm 3 m/s 750 mmHg 90%

    Amanhã, 21 Junho, Sexta-feira

    Tempo Temperatura Precipitação Vento Pressão Humidade
    00:00 +19°C° 0.4 mm 3 m/s 750 mmHg 90%
    01:00 +19°C° 0.4 mm 4 m/s 750 mmHg 90%
    02:00 +19°C° 0 mm 3 m/s 750 mmHg 91%
    03:00 +19°C° 0 mm 2 m/s 750 mmHg 91%
    04:00 +19°C° 0 mm 2 m/s 751 mmHg 91%
    05:00 +20°C° 0 mm 2 m/s 751 mmHg 88%
    06:00 +21°C° 0 mm 2 m/s 751 mmHg 85%
    07:00 +23°C° 0 mm 2 m/s 752 mmHg 81%
    08:00 +23°C° 0.5 mm 2 m/s 752 mmHg 82%
    09:00 +22°C° 0.5 mm 3 m/s 752 mmHg 82%
    10:00 +22°C° 0.5 mm 3 m/s 752 mmHg 82%
    11:00 +24°C° 0.1 mm 2 m/s 752 mmHg 77%
    12:00 +24°C° 0.1 mm 2 m/s 752 mmHg 72%
    13:00 +25°C° 0.1 mm 2 m/s 752 mmHg 68%
    14:00 +25°C° 0.2 mm 2 m/s 752 mmHg 67%
    15:00 +26°C° 0.2 mm 3 m/s 752 mmHg 66%
    16:00 +26°C° 0.2 mm 3 m/s 752 mmHg 65%
    17:00 +25°C° 0.3 mm 3 m/s 753 mmHg 71%
    18:00 +24°C° 0.3 mm 3 m/s 753 mmHg 77%
    19:00 +22°C° 0.3 mm 3 m/s 753 mmHg 83%
    20:00 +21°C° 0 mm 3 m/s 754 mmHg 86%
    21:00 +20°C° 0 mm 3 m/s 754 mmHg 89%
    22:00 +18°C° 0 mm 3 m/s 755 mmHg 92%
    23:00 +18°C° 0 mm 3 m/s 755 mmHg 93%

    Depois de amanhã, 22 Junho, Sábado

    Tempo Temperatura Precipitação Vento Pressão Humidade
    00:00 +17°C° 0 mm 3 m/s 755 mmHg 94%
    01:00 +17°C° 0 mm 3 m/s 755 mmHg 95%
    02:00 +16°C° 0 mm 3 m/s 756 mmHg 95%
    03:00 +16°C° 0 mm 3 m/s 756 mmHg 94%
    04:00 +14°C° 0 mm 3 m/s 756 mmHg 94%
    05:00 +16°C° 0 mm 3 m/s 756 mmHg 90%
    06:00 +17°C° 0 mm 3 m/s 757 mmHg 85%
    07:00 +18°C° 0 mm 4 m/s 757 mmHg 81%
    08:00 +19°C° 0 mm 4 m/s 757 mmHg 74%
    09:00 +20°C° 0 mm 4 m/s 757 mmHg 66%
    10:00 +21°C° 0 mm 4 m/s 757 mmHg 59%
    11:00 +22°C° 0 mm 4 m/s 757 mmHg 58%
    12:00 +23°C° 0 mm 5 m/s 757 mmHg 57%
    13:00 +23°C° 0 mm 5 m/s 757 mmHg 56%
    14:00 +23°C° 0 mm 5 m/s 757 mmHg 57%
    15:00 +23°C° 0 mm 5 m/s 756 mmHg 58%
    16:00 +23°C° 0 mm 5 m/s 756 mmHg 59%
    17:00 +22°C° 0 mm 5 m/s 756 mmHg 65%
    18:00 +21°C° 0 mm 5 m/s 756 mmHg 70%
    19:00 +20°C° 0 mm 5 m/s 757 mmHg 75%
    20:00 +19°C° 0 mm 5 m/s 757 mmHg 74%
    21:00 +17°C° 0 mm 5 m/s 757 mmHg 72%
    22:00 +15°C° 0 mm 5 m/s 757 mmHg 71%
    23:00 +15°C° 0 mm 5 m/s 757 mmHg 74%

    23 Junho, Domingo

    Tempo Temperatura Precipitação Vento Pressão Humidade
    00:00 +14°C° 0 mm 5 m/s 757 mmHg 77%
    01:00 +14°C° 0 mm 5 m/s 757 mmHg 80%
    02:00 +13°C° 0 mm 5 m/s 757 mmHg 78%
    03:00 +13°C° 0 mm 4 m/s 757 mmHg 76%
    04:00 +13°C° 0 mm 4 m/s 757 mmHg 74%
    05:00 +13°C° 0 mm 4 m/s 757 mmHg 73%
    06:00 +13°C° 0 mm 4 m/s 758 mmHg 72%
    07:00 +14°C° 0 mm 4 m/s 758 mmHg 71%
    08:00 +15°C° 0 mm 4 m/s 758 mmHg 70%
    09:00 +17°C° 0 mm 4 m/s 758 mmHg 68%
    10:00 +19°C° 0 mm 4 m/s 758 mmHg 66%
    11:00 +20°C° 0 mm 4 m/s 758 mmHg 64%
    12:00 +21°C° 0 mm 4 m/s 758 mmHg 61%
    13:00 +22°C° 0 mm 4 m/s 758 mmHg 59%
    14:00 +22°C° 0 mm 4 m/s 758 mmHg 58%
    15:00 +22°C° 0 mm 4 m/s 758 mmHg 58%
    16:00 +23°C° 0 mm 4 m/s 758 mmHg 58%
    17:00 +21°C° 0 mm 4 m/s 758 mmHg 63%
    18:00 +20°C° 0 mm 4 m/s 758 mmHg 67%
    19:00 +19°C° 0 mm 4 m/s 758 mmHg 72%
    20:00 +18°C° 0 mm 4 m/s 759 mmHg 77%
    21:00 +15°C° 0 mm 4 m/s 759 mmHg 83%
    22:00 +14°C° 0 mm 3 m/s 759 mmHg 89%
    23:00 +13°C° 0 mm 3 m/s 759 mmHg 91%

    24 Junho, Segunda-feira

    Tempo Temperatura Precipitação Vento Pressão Humidade
    00:00 +13°C° 0 mm 3 m/s 759 mmHg 92%
    01:00 +12°C° 0 mm 3 m/s 760 mmHg 94%
    02:00 +12°C° 0 mm 3 m/s 760 mmHg 95%
    03:00 +12°C° 0 mm 3 m/s 760 mmHg 95%
    04:00 +11°C° 0 mm 3 m/s 760 mmHg 95%
    05:00 +13°C° 0 mm 3 m/s 760 mmHg 88%
    06:00 +16°C° 0 mm 3 m/s 760 mmHg 81%
    07:00 +17°C° 0 mm 3 m/s 760 mmHg 75%
    08:00 +19°C° 0 mm 3 m/s 760 mmHg 69%
    09:00 +20°C° 0 mm 3 m/s 761 mmHg 62%
    10:00 +22°C° 0 mm 3 m/s 761 mmHg 56%
    11:00 +24°C° 0 mm 3 m/s 760 mmHg 53%
    12:00 +24°C° 0 mm 3 m/s 760 mmHg 51%
    13:00 +25°C° 0 mm 3 m/s 760 mmHg 48%
    14:00 +25°C° 0 mm 3 m/s 760 mmHg 47%
    15:00 +25°C° 0 mm 3 m/s 760 mmHg 46%
    16:00 +25°C° 0 mm 3 m/s 760 mmHg 46%
    17:00 +24°C° 0 mm 3 m/s 760 mmHg 52%
    18:00 +23°C° 0 mm 2 m/s 760 mmHg 59%
    19:00 +21°C° 0 mm 2 m/s 760 mmHg 66%
    20:00 +19°C° 0 mm 2 m/s 760 mmHg 70%
    21:00 +18°C° 0 mm 2 m/s 761 mmHg 75%
    22:00 +16°C° 0 mm 2 m/s 761 mmHg 79%
    23:00 +16°C° 0 mm 2 m/s 761 mmHg 82%

    25 Junho, Terça-feira

    Tempo Temperatura Precipitação Vento Pressão Humidade
    00:00 +15°C° 0 mm 2 m/s 761 mmHg 85%
    01:00 +15°C° 0 mm 2 m/s 761 mmHg 88%
    02:00 +14°C° 0 mm 2 m/s 761 mmHg 89%
    03:00 +14°C° 0 mm 2 m/s 761 mmHg 89%
    04:00 +14°C° 0 mm 2 m/s 761 mmHg 89%
    05:00 +16°C° 0 mm 2 m/s 761 mmHg 83%
    06:00 +17°C° 0 mm 2 m/s 761 mmHg 76%
    07:00 +19°C° 0 mm 2 m/s 761 mmHg 70%
    08:00 +21°C° 0 mm 3 m/s 761 mmHg 65%
    09:00 +22°C° 0 mm 3 m/s 761 mmHg 60%
    10:00 +25°C° 0 mm 3 m/s 761 mmHg 55%
    11:00 +25°C° 0 mm 3 m/s 761 mmHg 52%
    12:00 +26°C° 0 mm 3 m/s 761 mmHg 49%
    13:00 +27°C° 0 mm 3 m/s 761 mmHg 46%
    14:00 +27°C° 0 mm 3 m/s 760 mmHg 47%
    15:00 +27°C° 0 mm 3 m/s 760 mmHg 47%
    16:00 +27°C° 0 mm 3 m/s 760 mmHg 48%
    17:00 +26°C° 0 mm 3 m/s 760 mmHg 55%
    18:00 +24°C° 0 mm 3 m/s 760 mmHg 61%
    19:00 +23°C° 0 mm 2 m/s 760 mmHg 67%
    20:00 +21°C° 0 mm 2 m/s 760 mmHg 70%
    21:00 +19°C° 0 mm 2 m/s 760 mmHg 73%
    22:00 +18°C° 0 mm 3 m/s 761 mmHg 76%
    23:00 +17°C° 0 mm 2 m/s 760 mmHg 77%
    Mostrar mais